Location: Austin
(30.3000°N, 97.7500°W)
Time: 04:16:13
(UTC-05:00)

USA 186 - Pass Details

Date: 18 March 2023
Orbit: 389 x 439 km, 97.2° (Epoch: 30 March)

Event Time Altitude Azimuth Distance (km) Brightness Sun altitude
Exits shadow 20:37:22 13° 47° (NE) 1,261 3.8 -12.9°
Drops below altitude 10° 20:38:05 10° 34° (NE) 1,425 4.2 -13.1°
Sets 20:40:36 0° 11° (N) 2,289 5.5 -13.6°
